Location: Agadir Irigdalene
(31.2522°N, 8.7797°W)
Time: 06:46:57
(UTC+00:00)

Cosmos 1821 Rocket - Pass Details

Date: 01 December 2020
Orbit: 946 x 1004 km, 82.9° (Epoch: 26 January)

Event Time Altitude Azimuth Distance (km) Brightness Sun altitude
Rises 19:18:26 0° 351° (N) 3,681 7.0 -22.3°
Reaches altitude 10° 19:20:57 10° 350° (N) 2,739 6.3 -22.8°
Maximum altitude 19:27:13 74° 267° (W) 1,030 4.2 -24.1°
Drops below altitude 10° 19:33:32 10° 183° (S) 2,758 6.5 -25.4°
Sets 19:36:04 0° 181° (S) 3,708 7.2 -26.0°
